Wind_Speed
45 44 44 42 41 41 41 40 40 41 42 41 41 41 41 42 45 46 39 33 37 41 42 40 39 41 40 41 38 31 30 32 32 30 30 29 28 29 32 34 37 41 46 52 56 59 61 59 54 49 48 48 48 49 49 48 47 46 45 45 43 42 41 40 40 40 40 40 40 39 39 39 39 39 39 39 40 41 41 42 43 43 44 45 45 45
43 43 43 40 39 42 42 41 42 42 42 42 43 43 42 42 47 49 40 36 39 41 43 41 40 42 43 44 42 35 31 33 34 32 31 33 31 31 33 34 35 37 41 44 45 46 47 47 45 42 44 48 48 47 49 47 45 44 43 42 41 40 39 38 37 36 36 36 36 36 36 35 36 36 36 36 36 37 37 38 39 40 40 41 41 42
43 43 41 39 41 43 42 42 43 43 43 43 43 44 44 44 47 49 44 39 39 41 44 42 42 44 44 45 45 40 37 36 37 35 35 36 35 34 35 34 34 36 39 40 39 40 40 41 41 37 37 45 47 47 48 45 43 42 40 40 40 39 37 36 35 34 33 33 33 33 33 33 33 33 33 33 33 33 34 34 35 36 37 38 38 38
43 43 40 41 44 43 43 44 44 44 44 44 44 44 45 45 46 50 47 41 40 42 45 43 44 46 45 46 47 44 43 41 39 39 39 38 38 38 38 35 34 37 40 40 40 40 38 39 42 38 37 44 47 47 46 43 42 40 38 39 39 38 36 34 33 32 31 31 30 31 31 31 31 31 31 30 30 30 31 31 32 33 34 35 35 36
44 41 40 43 45 43 44 45 44 44 44 44 44 44 45 45 46 49 47 44 44 43 44 44 44 46 46 48 49 47 46 45 42 41 41 40 41 42 41 39 37 38 39 41 41 39 37 40 42 41 42 46 48 47 46 44 42 40 37 38 40 39 37 34 33 31 30 29 29 29 29 29 30 29 30 29 29 29 29 29 30 31 32 32 33 34
43 39 42 45 44 44 44 45 44 44 44 44 44 44 45 45 45 47 45 44 45 44 44 44 43 45 47 48 50 49 48 46 45 44 42 42 43 45 45 43 40 38 38 42 43 40 39 40 42 43 44 46 45 44 45 46 43 40 38 38 40 41 39 36 34 31 30 30 29 29 27 27 28 28 28 28 28 28 28 28 29 29 30 31 32 32
42 39 44 45 44 44 43 44 44 43 44 44 43 44 44 43 43 44 44 43 44 45 45 44 43 44 46 48 49 49 47 46 46 46 44 43 44 46 47 46 43 41 40 42 44 43 42 41 41 43 42 41 40 41 45 47 44 41 39 39 40 42 42 39 36 33 31 30 30 29 27 26 26 27 27 27 28 28 28 28 28 29 29 30 31 31
41 41 44 44 42 42 41 41 41 41 42 42 41 42 42 42 42 42 44 43 43 45 44 42 43 44 44 46 48 47 46 45 46 46 45 45 45 45 46 47 45 44 42 42 44 44 43 43 44 44 42 42 43 44 46 46 45 44 42 41 41 42 43 41 38 36 34 32 31 30 28 27 26 26 26 26 27 28 28 29 29 29 29 29 29 30
40 40 41 41 40 39 39 39 39 39 41 40 39 41 41 41 41 41 43 43 43 44 43 43 44 43 43 45 46 45 44 45 45 45 45 45 44 43 45 45 44 45 44 43 44 43 43 45 46 47 47 48 46 45 45 46 48 48 45 43 43 43 44 43 41 39 37 34 33 32 30 29 28 27 26 26 26 27 28 29 29 28 28 28 29 29
39 39 39 39 39 38 38 38 38 40 41 39 39 41 41 40 41 42 43 43 43 43 43 44 45 43 43 44 45 45 44 44 45 45 44 45 46 43 41 41 43 44 43 43 42 42 43 46 47 48 49 49 47 41 41 47 51 50 47 46 45 44 45 46 43 42 40 38 36 35 33 32 31 30 28 27 27 28 28 29 29 29 29 29 29 29
39 38 39 39 38 38 38 39 39 40 41 39 40 42 41 42 43 43 44 44 44 44 44 47 46 44 43 43 46 48 45 43 45 45 42 44 47 42 38 41 42 39 39 40 40 39 41 45 46 46 47 48 45 41 43 49 53 52 49 48 47 45 46 47 46 44 42 41 39 38 36 35 34 33 32 30 29 29 29 30 30 31 31 31 30 30
39 39 40 39 39 39 39 40 41 42 42 41 42 43 42 44 45 45 46 46 46 45 47 49 47 44 44 45 48 50 47 44 46 46 42 44 47 42 40 43 41 37 37 39 37 35 39 44 44 44 46 45 43 44 49 51 52 51 50 49 48 47 46 47 47 45 44 43 41 41 40 39 38 37 36 34 33 32 31 31 31 31 32 32 32 32
42 41 41 41 42 42 41 42 42 43 43 43 44 44 44 46 48 47 47 48 48 48 50 49 48 47 46 48 52 52 47 47 49 48 46 46 48 47 45 44 42 39 40 41 38 38 41 43 42 43 44 44 45 49 50 49 47 47 47 47 47 46 45 46 47 46 45 44 43 43 43 41 40 40 39 38 37 36 34 33 32 32 32 32 32 32
45 44 45 44 44 44 44 45 44 43 44 45 46 47 47 48 49 49 48 49 50 51 51 50 50 50 49 51 55 53 48 49 52 51 49 48 49 50 49 47 45 43 43 42 40 42 44 43 43 44 45 45 47 48 49 48 47 45 44 44 44 43 42 44 46 45 45 45 44 44 44 43 42 42 41 41 40 39 38 36 35 34 34 33 33 33
47 48 49 47 46 46 48 47 46 45 46 48 49 49 49 50 51 52 51 51 52 52 52 52 52 53 52 53 55 54 52 53 55 54 52 51 52 53 52 51 49 47 47 46 45 47 48 47 47 48 48 48 47 47 49 51 50 48 46 44 43 42 42 43 45 45 45 45 45 45 45 44 44 43 43 43 42 42 41 40 39 38 36 35 35 35
50 52 52 49 47 49 50 50 48 47 48 50 51 51 52 52 53 54 54 53 53 53 53 53 54 56 55 55 57 57 56 55 55 56 56 55 54 54 54 53 52 51 51 50 49 51 52 51 51 52 52 52 51 50 52 53 53 52 50 47 45 44 44 45 45 45 45 45 45 46 46 45 45 45 44 44 44 43 43 42 42 41 40 39 39 38
53 55 54 51 51 52 52 51 50 50 50 51 52 53 54 54 54 56 57 56 55 54 54 54 55 57 57 57 59 60 59 57 57 58 59 57 56 55 55 55 55 55 55 54 53 53 53 54 54 55 55 54 53 53 54 55 55 54 52 50 46 42 44 49 49 47 47 47 47 46 46 46 45 45 45 45 45 44 44 44 44 43 43 43 43 42
56 58 55 53 55 55 52 52 53 52 53 53 54 55 56 55 56 57 58 58 56 55 56 56 55 56 58 59 60 60 60 60 60 61 60 59 59 57 57 57 57 57 57 57 56 55 55 56 56 57 57 56 55 55 55 56 56 56 54 52 47 41 41 48 51 51 51 51 51 50 49 48 47 46 46 46 46 46 46 46 46 46 46 46 46 46
57 58 56 54 56 56 53 53 54 54 55 55 55 56 56 56 57 58 58 58 57 56 56 56 56 56 57 60 60 59 60 60 61 62 61 59 59 59 59 59 57 57 57 57 57 57 57 57 57 58 58 58 58 57 57 58 58 58 56 53 49 40 33 36 43 50 54 55 54 54 53 51 50 49 48 47 47 47 46 47 47 48 48 49 49 49
58 57 57 57 57 57 55 55 55 56 57 57 57 57 56 57 57 57 57 57 56 56 55 54 55 56 56 58 59 58 58 58 60 63 62 60 60 60 60 59 58 57 57 57 58 59 58 58 58 59 59 60 60 59 59 59 59 59 58 55 51 40 30 30 34 40 49 56 58 57 56 55 53 52 51 50 49 48 47 47 47 49 50 51 51 51
60 58 58 59 59 58 57 57 57 58 58 58 58 58 56 55 56 55 55 55 54 53 53 53 53 55 55 55 56 57 56 56 59 62 61 59 59 60 60 59 58 56 56 57 58 59 59 59 59 59 60 60 60 60 60 60 60 60 59 57 54 47 40 41 42 39 40 50 58 59 57 57 56 56 55 53 52 51 49 48 48 48 49 50 51 52
60 59 59 60 60 58 57 59 59 58 58 58 57 57 56 55 55 54 53 54 53 52 53 53 53 55 54 53 55 56 54 55 58 61 59 56 58 61 60 58 56 55 55 56 57 58 59 59 59 59 59 60 60 60 59 59 60 59 59 57 55 53 50 50 52 52 50 54 60 61 58 58 59 59 57 56 54 53 52 51 50 50 50 50 51 51
58 59 59 59 59 57 56 58 59 56 56 58 56 56 57 55 54 54 53 54 53 52 53 53 53 55 54 53 56 56 54 56 59 61 60 56 59 62 60 57 56 55 55 56 57 58 58 58 58 58 58 58 58 58 58 58 58 57 57 57 55 55 54 53 54 57 60 63 65 64 61 59 61 61 59 57 56 55 54 53 53 53 53 52 51 51
56 59 60 58 58 57 56 58 58 57 57 58 57 57 57 56 55 56 55 55 54 52 54 54 54 55 54 54 56 56 55 58 59 61 61 57 59 63 61 59 58 57 57 57 58 58 58 57 57 57 57 57 56 56 56 56 56 56 55 55 54 54 54 53 54 55 58 61 62 61 59 58 58 59 57 56 56 55 54 54 53 54 54 54 54 54
59 62 61 58 58 57 56 57 59 60 60 59 60 59 58 57 59 59 57 57 55 54 56 56 54 56 57 57 58 58 58 59 61 62 62 58 60 62 61 60 60 59 58 58 57 58 58 57 57 56 55 55 55 55 54 54 54 54 54 53 53 53 53 53 53 53 55 56 56 56 55 55 55 55 54 55 55 54 53 52 53 53 53 53 55 56
63 63 61 60 60 58 57 58 61 64 63 60 60 61 59 60 61 60 59 59 57 56 58 56 55 58 60 59 60 61 60 61 63 65 64 61 61 63 62 60 61 60 59 58 57 57 57 56 56 56 55 54 54 54 53 53 53 53 53 53 53 53 52 52 52 52 53 54 53 52 53 53 53 52 52 53 54 52 51 51 50 46 44 46 49 53
62 61 61 61 61 60 59 60 63 66 65 62 62 62 62 62 62 60 60 60 58 58 57 56 57 60 61 62 63 62 62 63 65 66 66 65 64 63 63 62 62 61 60 59 58 58 57 56 55 55 54 54 53 53 52 52 52 52 52 52 52 52 52 52 52 53 53 53 53 52 52 53 53 52 51 52 52 51 49 48 44 39 39 42 44 46
59 59 59 60 60 60 60 61 63 66 66 65 64 63 63 63 63 63 62 60 61 60 56 57 61 62 62 65 66 65 64 65 66 67 67 67 65 63 62 62 62 62 61 59 58 57 57 57 56 55 54 53 53 53 52 52 53 52 52 52 52 52 52 53 53 53 53 54 54 54 54 54 54 54 53 52 52 51 49 48 44 41 43 45 45 42
56 56 56 58 58 57 58 60 62 64 65 65 65 64 64 64 64 64 63 62 63 62 58 59 63 63 63 66 67 68 68 66 66 67 68 68 67 65 63 62 62 62 61 59 57 56 56 56 55 54 54 53 53 53 53 53 54 54 53 53 53 53 53 53 54 54 54 54 55 55 55 55 55 55 55 54 53 53 51 51 50 49 50 51 51 46
51 53 53 54 54 54 56 57 59 61 63 63 63 63 64 64 64 64 64 63 65 63 60 61 64 63 65 67 68 69 69 68 68 68 67 67 67 66 64 62 61 61 60 58 56 55 54 54 54 54 54 54 54 54 54 54 54 55 54 54 54 54 54 54 54 55 55 55 56 57 57 57 57 56 56 56 56 55 55 54 54 54 55 56 56 53
49 49 49 50 50 50 52 55 56 59 61 61 60 60 61 62 62 63 62 63 64 64 63 64 64 63 64 68 69 68 69 70 70 68 67 66 65 66 65 62 61 60 58 57 56 55 54 54 54 54 54 55 56 56 56 56 55 56 56 56 55 55 55 55 56 56 57 57 57 58 58 58 58 58 58 58 58 58 58 58 57 57 58 60 61 61
51 48 48 50 48 46 49 52 53 56 58 56 55 56 59 60 61 61 61 61 62 64 65 65 63 62 64 68 69 68 68 70 70 69 68 66 64 66 66 62 61 59 58 58 59 57 54 52 53 54 56 57 58 58 58 59 58 57 58 59 58 58 58 58 59 59 59 59 59 60 60 60 60 60 61 61 61 61 61 61 61 61 61 62 64 66
52 50 49 50 48 45 49 52 53 55 53 49 51 54 57 59 59 59 59 59 61 64 65 63 62 62 64 66 67 67 68 70 69 67 68 67 66 67 67 65 63 62 61 61 61 58 54 51 51 53 58 61 59 58 60 62 62 61 61 62 62 62 62 62 62 62 62 62 62 62 62 62 63 63 63 64 64 64 65 65 65 65 64 65 66 67
54 52 51 51 48 46 49 53 54 52 48 48 53 55 55 57 56 55 57 58 61 63 63 63 62 62 62 64 67 67 66 68 67 67 69 71 70 69 70 69 66 64 64 63 62 59 55 51 50 53 59 63 61 61 63 64 64 64 64 65 65 65 65 65 65 65 65 65 65 65 65 65 65 65 65 66 66 67 67 68 68 68 68 68 68 69
56 55 54 53 50 47 50 54 54 50 48 52 56 55 53 54 54 55 57 59 61 63 63 62 62 61 62 64 66 65 64 66 67 68 71 74 73 72 73 71 68 67 67 65 63 60 56 53 54 56 60 65 65 65 66 65 64 66 67 67 66 66 67 67 67 67 67 68 68 68 67 67 67 67 67 67 68 68 69 69 70 71 71 71 71 71
59 58 56 55 53 52 55 57 55 52 52 56 57 54 52 53 55 56 58 59 61 62 61 61 60 61 62 64 65 65 65 66 67 70 73 75 74 73 73 71 69 70 70 67 65 64 60 58 59 58 61 66 68 67 67 66 66 67 68 68 68 68 69 69 69 70 69 70 70 70 69 69 69 69 69 69 69 69 69 70 70 71 72 72 73 72
62 61 60 58 57 58 59 59 57 55 56 60 60 57 55 55 58 59 59 60 62 62 60 60 59 61 63 64 64 65 64 64 67 71 74 74 73 72 72 70 70 72 73 71 69 68 65 62 62 62 64 67 69 69 68 67 67 68 70 70 70 70 71 71 71 72 71 72 72 72 71 71 70 70 70 70 70 70 70 70 70 71 71 72 73 73
63 63 63 62 61 62 63 63 62 60 60 62 62 61 59 59 61 61 62 64 66 64 61 61 62 63 65 65 64 64 64 64 67 71 73 73 72 71 70 71 73 75 76 76 73 71 69 66 66 66 66 69 72 72 70 69 70 71 72 72 73 73 73 73 73 74 74 74 73 73 73 72 72 72 71 71 71 71 71 70 70 71 71 71 72 73
65 65 66 65 64 64 66 66 66 65 66 65 64 62 62 63 63 64 65 67 67 66 64 64 65 66 67 67 66 66 67 68 69 71 73 74 74 71 70 73 77 78 78 78 77 75 73 70 69 68 70 73 75 74 73 72 73 73 73 74 75 75 75 76 76 76 76 75 75 74 74 74 73 73 73 73 73 73 73 72 72 71 71 71 72 73
67 67 67 68 68 68 69 68 68 69 70 68 65 64 65 66 67 68 68 69 69 68 66 66 68 69 69 70 70 69 70 72 71 72 73 76 76 74 73 75 78 80 80 80 80 79 76 74 72 73 75 78 78 77 76 76 76 76 75 75 76 76 77 77 77 77 77 77 76 76 75 75 74 74 74 74 74 74 75 74 74 73 73 73 73 74
66 67 70 72 72 71 71 71 70 71 72 70 68 67 66 67 70 72 71 71 71 70 69 69 69 71 72 73 73 73 74 74 74 74 76 78 79 77 77 77 79 81 82 83 83 82 80 78 77 78 80 81 80 80 79 78 78 77 77 76 77 77 77 77 77 77 78 77 77 77 77 76 76 76 75 75 75 76 76 76 75 75 75 75 75 75
67 68 71 74 74 74 73 73 72 73 74 72 70 69 69 69 71 72 73 73 74 74 74 72 72 73 74 75 76 76 76 77 77 77 78 80 81 81 81 81 81 82 84 85 85 85 84 83 81 81 82 82 82 81 80 79 78 77 77 77 77 77 77 76 76 77 77 77 77 77 77 77 76 77 77 77 77 77 77 77 76 75 75 76 76 76
72 72 72 74 75 75 74 75 76 77 76 74 72 72 71 70 70 72 74 76 77 77 77 76 75 75 74 75 76 77 78 79 80 81 81 82 84 84 84 84 84 84 85 86 87 88 88 85 83 82 82 82 82 81 80 78 78 77 77 77 77 76 75 74 74 74 74 74 75 75 75 75 75 76 78 78 77 76 76 76 75 75 75 76 76 76
75 74 73 74 75 74 74 77 79 79 79 77 75 73 72 71 72 74 76 78 79 79 80 79 77 76 75 75 76 77 79 81 83 83 84 85 85 86 85 86 86 85 85 86 87 87 87 86 84 83 81 81 81 80 78 77 76 75 75 74 74 73 72 71 70 70 70 71 71 71 71 72 74 75 76 76 75 74 73 73 73 73 74 73 73 74
75 73 72 74 75 75 75 78 79 79 80 79 76 74 75 75 76 76 78 79 80 80 80 80 79 79 78 77 77 78 81 83 84 84 85 85 86 86 86 86 86 85 85 85 85 85 85 84 83 82 80 79 79 78 76 75 73 72 71 71 70 69 68 67 66 66 67 67 68 69 70 71 72 72 72 71 70 69 69 69 69 70 70 70 70 71
74 73 72 73 75 75 74 76 78 78 78 77 76 76 77 78 78 78 79 79 79 78 79 80 81 81 80 78 78 78 80 81 82 83 84 84 84 85 85 85 84 83 83 83 82 82 81 80 79 78 77 76 75 75 74 72 70 69 68 68 67 66 65 64 64 64 64 64 65 67 69 69 68 68 67 67 66 66 65 65 64 65 66 67 67 67
70 71 72 72 72 73 73 73 75 75 75 75 75 76 76 76 77 77 77 77 77 77 77 78 78 79 78 77 76 76 78 79 79 80 81 81 81 82 82 82 81 81 80 79 78 78 77 75 74 74 73 72 72 71 69 67 66 66 65 64 64 64 63 63 62 61 61 62 64 66 66 65 65 65 65 64 64 64 62 61 62 63 64 64 63 62
64 65 68 68 67 68 70 71 72 71 71 72 74 74 73 72 73 73 73 73 73 73 74 74 74 75 75 75 75 74 75 76 77 76 76 77 77 78 78 78 78 78 77 76 76 74 72 71 70 69 68 68 68 66 64 63 63 63 63 63 63 62 62 61 60 60 61 62 63 63 62 63 63 63 62 61 60 60 60 60 60 60 60 60 59 59
60 59 61 62 63 64 66 67 68 68 68 69 69 69 69 68 69 69 69 69 68 68 69 69 70 71 71 72 72 72 72 72 73 73 72 72 72 73 74 74 74 74 75 74 73 72 70 67 66 65 64 64 65 63 61 61 62 61 61 61 61 60 61 60 60 59 60 60 60 60 60 61 61 60 58 57 57 58 59 58 57 57 56 57 57 56
56 57 57 57 58 60 62 63 63 64 64 65 65 65 64 64 64 65 65 65 65 65 64 64 65 67 67 68 69 69 69 69 69 69 69 69 69 70 70 71 70 70 71 71 70 69 68 66 65 64 61 61 61 61 60 60 61 60 59 59 58 58 59 59 58 57 57 57 57 58 59 58 57 56 55 55 55 56 56 56 54 54 54 54 53 52
52 53 53 52 53 55 58 59 59 59 60 61 62 63 62 62 61 61 62 62 62 62 62 62 62 63 64 65 65 66 66 66 66 67 67 67 68 68 68 68 68 67 67 68 67 67 66 65 63 62 60 59 59 59 58 58 58 57 57 56 55 56 56 56 55 54 54 55 55 56 56 55 54 53 54 54 53 53 53 52 51 50 50 50 49 49
Wind_Direction
257 258 258 260 262 263 263 263 264 265 267 269 271 270 270 272 273 272 271 270 269 270 272 272 273 276 276 275 272 266 266 269 267 264 262 254 243 244 245 241 237 233 231 233 236 241 247 252 256 261 263 265 271 276 278 281 284 284 285 284 282 281 280 279 278 277 276 275 274 272 271 269 267 266 265 263 262 260 259 258 257 256 254 254 253 251
256 257 258 259 260 261 261 262 264 265 267 268 269 270 270 271 271 272 272 270 269 269 271 272 273 273 273 274 274 272 268 267 267 266 264 261 251 244 245 246 246 244 242 241 241 244 246 250 254 258 263 265 270 275 277 280 283 284 284 283 281 281 280 280 278 278 277 276 275 274 272 270 269 267 265 263 261 260 259 258 257 255 254 253 252 250
256 257 258 259 258 259 261 262 263 265 266 267 268 269 270 270 270 272 272 269 269 270 271 272 272 271 272 273 274 274 271 267 267 265 263 262 259 253 249 246 248 250 250 248 247 246 247 250 249 248 256 264 267 270 274 278 281 281 281 280 280 280 280 280 280 279 278 277 276 275 274 273 271 268 266 264 262 260 258 257 256 255 253 252 251 250
255 257 258 258 258 259 261 261 262 263 264 265 266 267 268 269 270 271 272 272 271 269 270 270 271 271 272 272 272 272 270 267 266 265 264 264 263 261 257 252 248 250 253 253 251 248 248 248 247 245 248 257 263 267 271 277 278 277 278 279 280 280 280 280 280 280 279 278 277 275 275 274 273 270 268 266 263 261 258 256 255 253 253 251 250 248
253 256 257 256 257 258 259 260 261 262 263 264 264 265 266 267 268 270 273 273 271 270 270 270 270 270 270 270 271 270 270 269 267 267 267 267 266 265 263 259 253 252 255 256 255 252 250 249 250 249 247 251 260 264 269 274 273 273 275 277 279 279 279 279 279 280 279 278 276 274 273 273 272 271 269 267 264 262 258 255 253 252 251 250 249 247
253 254 256 256 256 258 259 260 261 261 262 263 263 264 265 267 267 269 271 271 271 271 269 268 268 268 268 268 269 269 270 270 270 268 267 266 266 266 265 263 260 257 258 260 260 257 254 253 254 253 251 254 260 265 271 272 268 269 274 275 278 279 278 277 277 278 278 277 276 274 274 272 270 269 267 266 263 261 258 255 252 250 248 247 247 247
254 253 255 256 257 258 259 260 261 261 262 262 263 264 264 266 267 268 269 268 269 268 267 268 267 266 266 266 267 268 269 270 270 269 267 265 264 265 266 266 264 261 259 261 262 260 258 259 260 260 258 258 262 268 273 269 264 268 273 273 275 276 276 276 275 275 275 275 275 275 275 273 270 268 265 264 262 259 257 254 252 249 247 247 246 246
254 253 254 256 257 258 258 259 260 261 261 261 262 263 263 264 265 266 267 267 267 267 268 268 267 265 265 266 266 267 268 268 268 268 267 266 264 264 265 266 266 264 262 260 261 262 262 263 263 263 261 260 262 267 269 266 263 269 272 271 272 273 273 274 273 273 272 271 273 273 274 273 271 268 264 262 260 257 255 252 251 249 247 246 246 246
254 253 255 256 256 257 257 257 258 259 260 261 262 263 264 264 265 265 266 267 266 267 269 269 267 266 266 266 267 267 268 268 268 267 267 268 266 264 264 266 266 266 264 261 260 261 262 261 261 261 262 262 262 263 265 264 265 270 272 270 270 270 271 271 270 270 269 268 269 269 270 270 269 267 263 260 257 255 253 251 249 248 246 244 244 245
254 254 255 256 257 257 258 259 260 260 261 263 263 264 265 266 266 265 266 266 266 268 269 267 267 267 267 268 269 267 266 267 267 266 267 268 267 266 266 266 264 264 264 264 262 261 260 260 259 260 262 263 264 261 259 261 265 270 272 271 270 269 270 270 268 268 268 267 266 266 266 266 266 265 263 259 256 253 251 249 246 244 243 242 243 244
255 256 256 257 259 260 261 262 262 263 264 264 264 264 265 266 265 265 265 265 266 267 267 266 266 267 268 268 268 267 267 267 267 267 267 267 268 268 268 266 263 263 264 264 263 263 262 261 260 260 260 262 265 259 251 257 264 268 270 270 270 269 268 269 269 267 267 266 265 264 263 263 263 263 263 261 257 254 252 249 246 243 241 240 239 240
255 256 257 258 259 260 261 262 262 263 264 265 265 265 265 264 264 264 265 265 266 266 265 265 267 268 268 267 266 266 268 269 268 269 268 267 269 269 266 264 265 266 265 263 264 264 262 260 260 261 260 261 260 255 253 259 264 266 266 268 269 269 267 268 269 268 267 266 265 264 263 261 261 261 262 262 260 258 255 251 248 246 244 242 240 240
255 255 256 258 258 259 260 261 262 264 265 265 266 266 265 265 265 265 266 266 266 265 264 266 268 268 267 266 265 266 270 270 269 269 268 268 270 271 268 267 268 267 266 266 267 264 261 261 261 260 260 259 257 259 262 264 264 264 264 266 268 268 267 267 268 267 267 266 265 264 263 262 261 260 260 261 261 260 258 255 252 249 248 247 246 245
256 256 256 256 259 261 261 262 263 265 266 266 265 266 266 266 266 266 265 265 265 265 266 267 268 267 267 266 267 269 270 268 267 267 267 267 268 269 270 270 269 268 267 268 266 263 261 262 262 261 260 259 259 263 266 267 266 265 265 265 267 268 268 268 267 267 267 266 265 265 264 263 262 261 261 260 259 259 259 258 256 254 251 250 249 249
257 258 257 257 260 263 263 263 264 264 265 265 264 265 265 264 264 264 263 263 263 264 266 267 266 266 266 266 267 269 267 265 266 267 267 265 265 267 268 269 269 269 268 266 263 263 263 263 263 264 264 262 262 264 265 267 268 268 267 266 267 267 267 267 267 267 267 266 266 265 265 264 263 262 262 261 260 259 259 258 257 256 255 253 252 251
259 259 259 260 261 262 263 263 264 263 263 264 264 264 263 263 264 264 264 263 263 264 265 265 265 265 266 265 265 266 265 265 266 267 267 266 266 266 267 269 269 269 268 266 265 266 267 267 266 266 266 265 265 265 265 267 268 268 269 268 268 270 270 268 266 267 267 267 267 266 265 264 264 263 262 261 261 260 260 259 258 257 256 255 255 254
259 260 260 261 261 260 262 264 264 262 262 263 264 264 263 264 264 265 265 264 264 264 264 263 263 265 265 263 263 264 265 266 265 265 266 268 268 268 268 269 269 269 268 268 268 268 268 269 269 268 268 268 267 266 266 267 268 268 269 269 270 270 270 271 270 268 268 267 266 265 265 264 264 264 263 262 261 261 260 260 259 258 258 257 256 255
260 261 261 262 262 262 262 263 263 263 263 263 263 264 265 265 265 264 265 265 264 263 263 263 262 263 263 263 263 264 266 266 265 265 265 266 268 268 267 267 267 268 269 269 269 268 268 268 268 269 269 269 269 269 269 268 269 269 269 270 270 269 271 276 278 276 272 269 266 265 263 263 263 262 262 261 261 261 260 260 260 260 260 259 258 256
261 263 263 263 263 264 263 263 263 263 263 262 262 263 265 265 264 264 264 264 264 263 262 263 262 261 262 263 263 263 265 266 266 266 265 265 266 266 266 266 266 267 267 268 268 268 268 268 268 269 270 270 270 270 270 270 270 270 271 270 271 271 273 277 281 282 279 274 269 266 264 262 262 260 260 260 260 259 259 259 260 260 260 260 259 259
261 263 265 264 264 265 264 264 263 263 262 263 263 263 264 264 264 264 264 264 263 263 262 261 261 261 261 263 264 264 264 266 267 266 266 265 265 265 265 265 266 266 267 267 267 268 268 268 268 269 269 270 270 270 270 270 270 271 271 271 270 268 258 251 260 274 280 278 271 267 265 264 262 261 260 260 259 259 258 259 259 259 259 259 260 260
262 263 265 266 265 265 265 264 263 263 263 264 264 264 263 263 263 262 263 263 263 262 261 260 260 260 261 263 265 265 264 265 266 267 267 268 267 267 266 265 265 266 266 266 266 267 267 268 268 268 268 268 269 269 269 270 270 270 270 270 269 265 253 241 241 248 262 270 269 267 266 266 265 264 262 261 260 258 258 258 258 258 258 259 260 260
264 264 264 265 265 265 265 265 264 264 265 264 264 264 263 261 260 260 260 261 261 261 261 260 260 260 261 261 262 263 264 265 265 266 267 268 268 268 267 268 268 267 267 267 267 267 267 267 267 268 268 268 268 269 268 268 269 269 269 268 267 264 258 250 246 244 245 252 260 264 266 266 266 265 263 262 261 260 260 259 258 258 258 259 260 260
264 264 263 262 263 263 263 263 264 263 263 263 263 262 262 260 260 260 260 260 261 261 262 262 262 262 262 261 262 262 262 262 262 264 265 266 266 268 269 270 270 270 269 268 267 267 267 267 267 267 267 267 267 268 268 268 268 267 267 267 265 263 260 256 252 250 248 250 256 263 265 264 264 264 264 263 262 261 261 260 259 259 259 259 259 260
263 261 259 259 260 261 261 262 263 262 260 260 260 259 260 261 260 258 258 259 260 261 261 261 262 263 262 262 262 262 262 262 263 264 265 266 267 269 270 271 270 270 270 269 269 268 268 267 267 266 266 266 266 266 267 267 267 267 267 266 266 264 262 260 257 255 254 255 257 260 262 262 263 265 265 265 263 262 262 261 260 259 259 258 258 259
259 258 258 258 258 259 259 260 260 259 258 258 259 258 259 259 259 258 258 259 259 259 259 260 261 263 262 261 262 263 263 263 264 264 265 266 267 269 270 271 270 270 270 269 269 268 268 267 267 266 266 266 265 265 265 266 266 267 266 266 266 265 264 263 261 259 259 259 260 261 262 262 262 263 264 264 264 263 262 261 260 261 261 260 259 258
258 258 259 258 257 256 256 257 257 257 257 257 258 259 259 258 258 259 260 260 260 259 260 261 261 262 262 262 261 262 263 264 265 265 266 266 266 268 269 270 270 269 269 269 268 267 267 267 267 266 266 265 265 265 265 265 265 266 266 266 266 266 265 265 264 262 261 261 262 262 262 263 262 262 262 263 263 262 261 260 260 261 262 263 262 259
261 260 259 258 257 256 255 255 256 258 258 257 257 257 258 259 259 259 259 260 260 260 260 262 261 260 262 262 261 261 262 263 264 266 267 267 267 267 268 269 269 269 268 267 267 267 267 266 265 265 265 265 265 265 265 265 264 264 265 265 266 266 266 265 265 264 263 262 262 261 261 261 261 261 261 261 262 262 261 260 258 255 256 258 260 260
261 261 260 259 257 256 255 255 256 258 259 259 258 257 258 259 260 260 259 259 260 259 259 260 260 260 261 262 262 261 260 261 263 265 266 267 267 267 267 267 267 267 267 266 266 266 266 266 266 265 265 265 265 265 265 265 265 265 264 264 264 264 265 264 264 264 264 263 263 262 261 260 259 260 259 259 260 260 259 257 252 247 248 251 255 257
261 261 259 259 258 257 257 256 256 257 258 259 259 259 258 258 259 259 259 259 259 259 258 258 259 260 261 262 263 263 262 262 262 263 265 266 266 266 265 265 265 265 265 265 265 265 265 267 267 267 266 266 265 265 265 265 265 265 265 264 264 264 264 264 263 263 263 262 262 262 262 261 260 260 259 259 258 257 257 255 251 247 246 249 253 253
259 259 259 259 259 258 258 257 256 257 257 258 258 259 259 259 259 260 260 260 260 260 258 258 258 260 261 262 263 265 266 265 263 263 265 266 266 266 265 264 264 263 263 264 265 265 265 266 266 267 268 268 267 267 266 266 266 266 266 265 265 265 264 264 264 264 263 263 263 262 262 262 262 261 261 260 259 258 257 255 253 250 248 251 252 250
259 259 259 259 258 257 258 257 257 257 257 257 258 259 260 260 260 260 260 260 261 261 259 257 258 260 262 263 264 265 266 267 267 267 267 267 267 267 266 264 264 264 265 266 265 263 263 264 266 267 268 269 269 269 268 268 267 268 268 267 266 266 266 266 266 265 265 265 265 265 264 264 263 263 262 261 260 259 258 256 254 252 250 252 253 252
261 259 258 258 257 257 257 257 256 256 257 258 259 260 260 260 260 260 260 260 261 261 261 260 260 260 261 262 264 265 267 268 268 269 269 268 268 268 268 267 266 266 266 265 263 261 261 264 266 268 268 268 269 270 271 271 270 269 270 270 270 269 269 268 267 266 266 266 265 265 265 265 264 264 263 263 261 260 260 258 256 254 252 252 254 255
262 261 260 259 258 258 258 257 257 257 258 260 260 259 258 259 259 260 261 261 261 261 261 262 262 260 260 262 264 265 266 267 269 271 272 271 270 270 270 269 267 266 265 264 263 262 261 262 264 267 268 269 269 271 272 272 272 272 272 272 272 271 270 270 269 268 268 267 266 265 265 265 264 264 264 263 263 262 261 260 259 257 255 254 254 254
262 261 261 261 260 259 259 260 260 260 261 261 259 257 256 258 259 259 260 260 260 260 260 261 261 261 262 263 263 264 265 267 269 270 271 271 270 270 270 269 269 268 266 265 264 263 263 263 263 265 267 269 270 270 270 271 273 274 273 272 272 272 272 272 271 271 270 269 268 267 266 265 265 264 264 263 263 263 262 262 261 261 259 258 256 255
262 262 262 262 261 260 260 261 261 262 261 260 258 258 258 259 260 260 259 258 258 259 260 260 260 261 261 261 262 263 264 265 267 268 268 269 269 269 269 269 270 269 268 267 267 267 267 266 264 263 266 269 269 270 270 271 272 273 273 274 274 274 274 274 273 273 272 271 270 269 268 267 266 265 264 263 263 263 262 263 263 262 262 261 260 259
265 265 264 265 264 263 261 261 261 262 262 261 260 260 260 261 261 259 259 259 259 259 260 261 261 261 261 261 261 262 262 263 265 266 266 266 267 267 268 269 270 270 270 270 269 269 268 267 266 266 267 268 269 269 270 271 271 272 273 274 274 275 275 275 274 274 273 273 272 271 270 268 267 266 265 264 263 262 262 262 262 263 263 263 263 262
266 267 267 266 265 264 264 263 263 262 261 262 263 262 261 261 261 261 261 262 261 261 261 262 262 262 261 261 261 261 262 262 263 263 263 264 265 266 268 269 270 270 270 270 269 270 270 270 270 269 268 268 269 269 269 270 271 273 273 274 274 274 274 274 274 274 273 273 272 272 271 270 269 268 267 266 265 264 263 262 261 261 262 262 262 263
266 266 266 266 265 266 266 266 265 263 262 261 262 263 263 262 262 263 263 263 263 264 264 264 263 263 263 262 262 263 262 262 261 262 264 265 265 266 268 269 269 269 270 271 271 271 271 270 270 269 270 270 270 270 270 271 271 272 272 273 273 273 273 273 273 272 272 272 272 271 271 271 270 269 268 268 267 266 265 264 262 262 261 261 261 261
265 266 266 267 266 266 265 265 265 265 264 262 262 263 264 264 263 263 263 263 264 264 265 265 264 264 264 265 264 264 263 262 262 263 264 265 266 267 267 267 268 269 270 271 272 272 271 271 271 272 271 270 270 271 271 271 271 271 271 272 272 273 273 272 272 272 271 271 271 270 270 270 269 269 269 268 268 267 266 266 265 264 263 262 261 261
265 267 267 267 266 265 265 265 265 265 265 264 264 264 264 265 264 263 263 263 263 264 264 264 265 266 266 266 265 264 264 264 263 264 265 266 267 267 267 267 269 270 271 272 272 272 273 273 273 272 272 271 271 272 272 271 271 271 271 271 271 271 271 271 271 271 271 271 270 270 269 269 268 268 268 267 267 267 267 266 266 265 264 264 263 262
265 266 267 267 266 266 266 265 265 266 266 266 265 265 264 264 265 265 265 265 265 265 264 263 264 265 266 266 266 266 266 266 266 266 267 267 268 268 268 268 269 271 271 272 272 273 273 273 272 272 272 272 272 272 272 272 272 271 271 271 270 270 270 270 270 270 270 270 269 269 269 269 268 268 268 267 267 267 266 266 266 266 266 266 265 264
265 265 265 266 267 267 267 268 268 267 267 266 266 265 264 264 265 266 267 267 266 265 264 263 262 262 263 265 266 267 267 268 268 268 268 268 269 269 269 268 269 269 270 271 273 273 273 272 271 271 271 271 272 272 272 272 272 272 271 271 270 270 269 269 269 269 269 269 269 269 268 268 268 268 267 267 266 266 266 267 267 267 267 267 267 267
266 264 264 265 266 267 269 270 269 269 268 268 267 266 265 265 266 267 267 267 267 267 266 265 263 263 263 264 266 267 268 268 268 268 267 267 268 268 268 269 269 269 269 270 271 272 272 272 272 271 271 272 272 272 272 272 271 271 270 270 270 269 269 268 268 268 268 268 268 268 267 267 267 266 266 265 265 265 266 267 267 267 267 267 268 268
265 265 265 266 266 267 267 268 268 269 269 269 268 268 268 268 267 267 267 267 267 267 268 267 267 267 266 265 265 266 266 266 266 266 267 267 267 268 268 268 268 268 269 269 269 270 271 272 272 272 271 272 272 272 272 271 270 270 269 269 269 268 268 268 267 267 267 267 267 267 266 266 265 264 264 265 265 266 266 266 267 267 267 267 267 268
265 265 265 266 266 266 265 266 267 267 268 269 270 270 270 269 268 267 267 267 267 267 268 269 269 269 268 266 265 265 265 266 266 267 267 267 268 268 268 268 268 268 268 268 269 269 270 270 271 271 271 271 271 271 271 270 270 270 269 269 268 268 267 267 266 266 265 265 265 265 265 264 264 264 265 266 266 266 266 266 266 267 267 267 266 266
266 266 265 265 265 266 265 266 267 267 268 269 270 269 268 268 268 267 267 267 267 268 268 269 268 268 268 267 266 266 266 266 266 267 267 267 267 268 268 268 268 268 268 268 268 268 268 269 269 270 270 270 270 270 270 270 270 269 268 268 267 267 266 265 264 264 264 264 264 263 263 264 265 265 266 266 266 265 265 265 265 265 265 265 265 265
264 265 266 266 266 267 268 267 268 268 269 269 269 268 267 267 267 267 268 268 268 268 268 268 268 268 269 268 268 267 267 266 266 266 266 266 266 267 267 268 268 268 268 268 268 268 268 268 268 268 268 268 268 268 268 268 268 267 267 266 265 264 264 263 263 263 262 262 261 262 263 264 264 264 265 265 265 265 265 265 263 262 262 263 264 265
263 264 265 267 267 268 268 268 268 268 268 268 268 268 268 268 268 268 268 268 268 268 268 268 268 268 269 269 268 267 266 266 266 265 265 266 266 266 267 267 268 268 269 268 268 268 267 267 267 267 267 267 267 266 266 266 265 264 264 263 263 263 263 263 262 261 261 260 260 261 262 263 263 263 263 264 264 265 264 263 262 262 262 263 263 263
266 266 266 267 267 267 267 267 268 268 268 268 268 268 269 269 269 269 269 268 268 268 267 267 268 268 268 268 267 267 266 266 266 266 266 266 265 265 265 266 266 266 267 268 268 268 268 267 267 266 265 265 266 266 265 264 263 262 262 262 262 262 262 262 261 260 260 260 261 262 261 261 262 262 263 263 263 263 263 262 262 263 262 262 262 262
268 267 266 266 266 267 267 267 268 268 269 270 270 270 270 269 269 269 270 270 269 268 267 266 266 266 266 266 266 266 267 266 266 266 266 266 265 265 265 265 265 265 265 266 267 268 268 268 267 267 265 264 264 264 263 263 263 262 262 261 261 261 261 261 261 261 261 261 261 260 260 261 261 262 262 261 261 261 261 262 261 261 261 261 262 262
268 267 267 267 267 267 267 268 268 269 269 270 271 271 271 271 271 270 269 269 269 269 268 267 267 266 266 266 266 266 266 266 266 266 266 266 266 265 265 265 265 265 265 266 266 266 266 266 266 266 266 264 263 262 261 260 260 261 261 261 261 261 261 260 260 260 260 260 260 260 260 261 261 261 260 260 260 260 260 261 260 260 261 261 262 262
Height
10596 10597 10598 10601 10603 10602 10602 10603 10603 10602 10603 10604 10604 10605 10605 10604 10600 10599 10606 10611 10609 10606 10604 10605 10605 10604 10605 10604 10609 10616 10617 10616 10616 10617 10619 10622 10625 10626 10626 10628 10631 10634 10634 10634 10635 10634 10633 10633 10634 10632 10630 10629 10627 10626 10627 10626 10625 10625 10624 10623 10622 10622 10623 10622 10622 10622 10621 10620 10620 10620 10620 10620 10621 10621 10622 10622 10622 10623 10624 10624 10625 10626 10626 10627 10628 10629
10591 10592 10594 10598 10598 10596 10596 10598 10598 10598 10599 10600 10600 10599 10600 10600 10595 10592 10601 10606 10603 10602 10600 10601 10602 10600 10599 10599 10602 10609 10613 10612 10611 10614 10614 10614 10618 10620 10621 10622 10625 10627 10627 10627 10629 10630 10630 10630 10630 10628 10626 10625 10624 10623 10622 10622 10621 10621 10620 10618 10618 10618 10619 10618 10618 10618 10617 10616 10615 10615 10615 10616 10616 10616 10616 10617 10617 10618 10618 10619 10619 10620 10621 10621 10622 10623
10586 10587 10591 10594 10592 10591 10593 10594 10594 10594 10595 10595 10595 10595 10594 10595 10591 10588 10594 10600 10599 10598 10596 10597 10597 10595 10595 10595 10596 10601 10605 10607 10607 10608 10609 10609 10611 10613 10614 10617 10620 10620 10619 10620 10622 10623 10624 10624 10624 10626 10625 10622 10620 10619 10618 10618 10618 10618 10617 10614 10613 10614 10615 10615 10615 10614 10614 10613 10612 10611 10611 10611 10611 10611 10612 10612 10613 10613 10614 10614 10614 10615 10615 10616 10617 10618
10581 10583 10587 10588 10585 10587 10588 10588 10589 10589 10590 10591 10591 10591 10589 10590 10588 10583 10588 10594 10595 10594 10591 10592 10592 10590 10591 10590 10590 10594 10596 10599 10602 10603 10604 10605 10605 10606 10607 10611 10615 10615 10613 10614 10615 10617 10619 10618 10617 10621 10622 10618 10615 10614 10614 10614 10615 10614 10613 10611 10609 10610 10611 10611 10611 10611 10610 10610 10609 10608 10608 10607 10607 10607 10607 10608 10608 10609 10609 10609 10610 10610 10611 10611 10612 10613
10577 10581 10582 10580 10580 10582 10583 10583 10584 10584 10585 10586 10586 10586 10585 10585 10584 10580 10583 10587 10587 10588 10587 10587 10588 10586 10586 10585 10584 10587 10589 10592 10595 10597 10598 10600 10600 10600 10600 10604 10608 10609 10608 10608 10609 10611 10612 10611 10610 10613 10614 10611 10610 10610 10610 10610 10611 10610 10610 10608 10605 10606 10607 10608 10608 10608 10608 10607 10606 10605 10605 10604 10604 10604 10604 10604 10604 10605 10605 10605 10606 10606 10606 10607 10607 10608
10573 10578 10575 10573 10575 10577 10578 10578 10579 10580 10580 10581 10581 10582 10581 10581 10581 10578 10580 10582 10581 10582 10582 10582 10583 10582 10581 10580 10579 10580 10583 10586 10588 10591 10593 10594 10595 10594 10593 10595 10599 10603 10604 10602 10602 10604 10605 10604 10604 10605 10606 10605 10604 10605 10605 10605 10606 10606 10606 10605 10602 10601 10603 10604 10604 10605 10604 10604 10603 10603 10603 10602 10601 10601 10601 10601 10601 10601 10601 10602 10602 10602 10603 10603 10603 10604
10569 10573 10568 10568 10571 10572 10573 10574 10574 10575 10575 10576 10576 10577 10577 10577 10576 10575 10575 10577 10576 10575 10576 10578 10579 10577 10576 10575 10574 10575 10578 10581 10581 10583 10586 10588 10589 10588 10587 10588 10591 10596 10598 10597 10596 10596 10597 10598 10597 10597 10597 10598 10598 10599 10599 10599 10601 10602 10602 10602 10600 10598 10597 10599 10600 10601 10601 10601 10600 10600 10600 10599 10599 10598 10598 10598 10598 10598 10598 10599 10599 10599 10600 10600 10600 10601
10563 10565 10562 10564 10566 10567 10569 10569 10570 10571 10569 10571 10572 10571 10572 10572 10572 10571 10570 10572 10572 10570 10571 10574 10573 10573 10572 10570 10570 10571 10573 10576 10576 10576 10579 10581 10583 10584 10583 10582 10584 10587 10591 10592 10590 10591 10592 10591 10590 10589 10590 10591 10593 10593 10593 10594 10595 10596 10597 10598 10597 10594 10593 10594 10596 10596 10597 10597 10597 10596 10596 10596 10596 10596 10595 10595 10595 10595 10595 10596 10596 10596 10597 10597 10597 10598
10557 10559 10559 10560 10561 10562 10564 10564 10565 10565 10564 10566 10568 10566 10567 10567 10568 10567 10566 10567 10567 10566 10568 10568 10567 10568 10568 10565 10565 10568 10569 10570 10570 10571 10572 10573 10576 10578 10578 10578 10579 10580 10582 10585 10585 10587 10588 10586 10585 10584 10584 10585 10587 10588 10587 10588 10589 10590 10592 10592 10592 10591 10588 10589 10591 10591 10591 10593 10593 10593 10593 10593 10593 10593 10593 10592 10592 10592 10592 10593 10593 10594 10594 10594 10595 10595
10552 10554 10555 10555 10556 10558 10559 10559 10560 10560 10560 10562 10563 10561 10562 10563 10563 10562 10562 10562 10561 10563 10563 10561 10561 10563 10563 10562 10561 10562 10565 10565 10565 10565 10567 10568 10568 10571 10574 10574 10575 10575 10576 10578 10580 10582 10582 10581 10580 10580 10580 10580 10580 10581 10581 10582 10583 10585 10587 10587 10587 10587 10584 10583 10585 10586 10586 10588 10588 10588 10589 10589 10589 10589 10589 10590 10589 10589 10590 10590 10590 10591 10591 10592 10592 10592
10548 10550 10550 10550 10552 10553 10554 10554 10555 10555 10555 10558 10557 10556 10558 10558 10557 10557 10557 10557 10557 10559 10558 10554 10556 10558 10559 10559 10555 10554 10559 10562 10559 10559 10564 10564 10561 10566 10570 10568 10568 10571 10573 10573 10574 10577 10577 10574 10574 10575 10576 10575 10575 10575 10576 10577 10578 10579 10581 10581 10581 10582 10580 10578 10579 10580 10581 10582 10583 10583 10584 10584 10584 10585 10585 10586 10586 10587 10587 10587 10588 10588 10588 10588 10589 10589
10543 10545 10545 10546 10547 10548 10549 10549 10550 10550 10550 10552 10551 10551 10552 10551 10551 10552 10551 10552 10552 10553 10551 10549 10552 10555 10555 10554 10549 10548 10554 10557 10554 10554 10559 10558 10556 10561 10564 10561 10563 10568 10568 10567 10571 10574 10570 10567 10568 10570 10570 10571 10571 10571 10572 10574 10574 10574 10576 10576 10576 10576 10575 10574 10574 10575 10575 10577 10578 10578 10579 10579 10579 10580 10581 10581 10582 10583 10584 10584 10585 10585 10586 10586 10586 10586
10537 10539 10540 10541 10541 10543 10544 10544 10545 10546 10545 10546 10546 10545 10546 10545 10544 10546 10546 10546 10547 10547 10545 10545 10548 10549 10550 10548 10543 10544 10551 10552 10549 10549 10552 10553 10552 10554 10555 10556 10560 10562 10562 10562 10567 10567 10562 10561 10564 10565 10565 10567 10567 10566 10566 10567 10569 10569 10571 10571 10570 10571 10571 10570 10569 10570 10570 10571 10572 10572 10573 10574 10575 10575 10576 10577 10577 10578 10580 10580 10581 10582 10583 10583 10583 10584
10531 10533 10534 10535 10536 10538 10538 10538 10541 10542 10540 10540 10540 10539 10540 10539 10538 10540 10541 10540 10540 10540 10540 10542 10543 10543 10544 10542 10538 10541 10546 10545 10542 10543 10546 10548 10548 10547 10548 10550 10553 10556 10556 10557 10559 10557 10555 10556 10559 10559 10560 10561 10562 10561 10560 10559 10561 10563 10565 10565 10565 10566 10567 10565 10565 10565 10565 10565 10567 10567 10567 10568 10569 10570 10571 10572 10572 10573 10574 10576 10577 10577 10578 10579 10580 10580
10525 10525 10526 10530 10533 10532 10532 10533 10536 10537 10535 10534 10533 10533 10533 10533 10532 10533 10534 10534 10534 10535 10536 10537 10537 10536 10538 10537 10534 10536 10539 10537 10536 10538 10540 10542 10542 10542 10542 10544 10547 10549 10550 10550 10551 10550 10549 10551 10552 10553 10554 10554 10556 10558 10555 10553 10554 10556 10558 10560 10561 10562 10562 10561 10560 10561 10561 10561 10561 10562 10562 10563 10564 10564 10565 10566 10567 10568 10569 10570 10571 10572 10573 10575 10575 10576
10518 10517 10519 10525 10528 10526 10525 10527 10530 10530 10529 10527 10526 10527 10526 10525 10526 10526 10527 10529 10529 10530 10531 10532 10531 10530 10531 10531 10528 10529 10530 10531 10532 10531 10531 10534 10536 10536 10537 10538 10540 10542 10541 10542 10543 10544 10544 10544 10545 10546 10546 10547 10549 10550 10549 10547 10547 10549 10551 10554 10556 10558 10558 10557 10557 10557 10557 10557 10557 10556 10557 10557 10558 10559 10560 10560 10561 10562 10564 10564 10565 10566 10567 10569 10570 10571
10511 10509 10513 10519 10520 10519 10520 10521 10522 10523 10522 10520 10519 10518 10518 10520 10520 10519 10519 10521 10524 10525 10525 10526 10526 10524 10524 10524 10521 10521 10523 10525 10526 10524 10525 10527 10528 10530 10531 10532 10533 10533 10533 10535 10536 10537 10537 10537 10538 10538 10539 10539 10541 10542 10542 10541 10541 10542 10545 10548 10553 10557 10556 10554 10554 10555 10555 10553 10552 10552 10551 10552 10552 10553 10554 10555 10555 10557 10558 10558 10559 10560 10561 10562 10563 10564
10503 10502 10508 10512 10510 10511 10516 10515 10515 10515 10515 10514 10513 10510 10511 10513 10513 10511 10512 10514 10517 10519 10518 10518 10520 10519 10516 10515 10516 10517 10517 10518 10518 10517 10519 10521 10521 10523 10525 10525 10526 10526 10526 10527 10528 10529 10530 10530 10530 10530 10531 10532 10533 10533 10534 10533 10534 10535 10538 10542 10548 10555 10556 10553 10551 10551 10551 10550 10548 10546 10546 10546 10546 10547 10547 10548 10550 10551 10552 10553 10553 10554 10555 10556 10557 10558
10497 10496 10500 10504 10502 10503 10508 10508 10507 10508 10507 10506 10506 10505 10505 10505 10505 10504 10505 10507 10509 10511 10512 10511 10512 10512 10509 10507 10509 10512 10511 10511 10509 10508 10510 10514 10515 10516 10516 10517 10519 10519 10520 10520 10520 10521 10522 10522 10522 10522 10523 10524 10524 10525 10525 10526 10526 10527 10531 10534 10541 10553 10559 10556 10551 10545 10543 10543 10542 10540 10539 10539 10540 10540 10541 10543 10544 10545 10546 10547 10548 10548 10549 10549 10550 10551
10491 10491 10492 10494 10494 10496 10499 10500 10500 10499 10498 10499 10499 10499 10499 10499 10498 10497 10498 10499 10501 10503 10504 10505 10504 10503 10502 10501 10502 10505 10506 10505 10501 10498 10501 10506 10508 10507 10508 10510 10512 10513 10513 10513 10513 10513 10514 10515 10515 10515 10515 10515 10516 10517 10517 10517 10518 10519 10522 10526 10534 10547 10555 10554 10549 10542 10536 10533 10532 10532 10532 10532 10532 10534 10535 10536 10537 10538 10540 10541 10542 10542 10542 10543 10544 10545
10485 10487 10486 10485 10486 10489 10491 10491 10491 10490 10490 10492 10491 10491 10492 10492 10491 10491 10492 10492 10494 10495 10495 10497 10497 10495 10496 10497 10495 10496 10498 10498 10493 10489 10493 10498 10499 10497 10499 10502 10504 10506 10506 10506 10506 10506 10506 10507 10508 10508 10508 10508 10508 10509 10509 10510 10510 10511 10513 10517 10523 10533 10540 10542 10540 10538 10532 10525 10522 10522 10524 10524 10525 10526 10527 10529 10531 10532 10534 10535 10536 10536 10536 10537 10537 10538
10480 10481 10480 10477 10477 10481 10482 10481 10481 10483 10484 10483 10483 10483 10484 10485 10484 10484 10486 10485 10485 10488 10488 10490 10490 10488 10490 10492 10488 10489 10492 10490 10486 10482 10486 10491 10489 10487 10491 10494 10496 10498 10498 10499 10499 10499 10499 10500 10500 10500 10500 10500 10500 10501 10502 10502 10503 10504 10505 10508 10512 10518 10524 10528 10528 10528 10526 10520 10514 10514 10516 10517 10516 10516 10519 10521 10523 10525 10527 10528 10529 10529 10530 10531 10531 10532
10475 10472 10471 10470 10469 10473 10475 10472 10473 10476 10476 10474 10475 10475 10474 10476 10478 10477 10479 10478 10479 10482 10482 10483 10483 10481 10484 10485 10481 10483 10485 10482 10479 10475 10479 10484 10481 10478 10483 10486 10488 10490 10490 10491 10491 10491 10492 10492 10492 10493 10493 10493 10493 10493 10493 10494 10495 10496 10497 10499 10502 10505 10510 10514 10516 10516 10515 10512 10509 10508 10508 10508 10507 10508 10511 10513 10515 10517 10519 10520 10522 10522 10523 10524 10525 10525
10467 10460 10460 10463 10463 10466 10467 10465 10466 10467 10466 10465 10467 10467 10467 10470 10471 10470 10471 10472 10474 10477 10475 10475 10477 10475 10477 10477 10474 10476 10476 10474 10473 10470 10472 10478 10474 10471 10476 10479 10479 10481 10482 10483 10483 10482 10483 10484 10484 10485 10485 10485 10486 10486 10486 10486 10487 10488 10489 10490 10492 10494 10497 10501 10503 10503 10503 10502 10501 10500 10500 10500 10499 10500 10502 10504 10506 10508 10511 10513 10513 10514 10515 10516 10517 10518
10454 10448 10452 10457 10458 10460 10460 10458 10457 10455 10455 10457 10458 10460 10463 10463 10461 10462 10465 10465 10469 10471 10467 10469 10472 10468 10467 10469 10468 10468 10467 10466 10466 10463 10466 10472 10469 10465 10469 10471 10471 10472 10474 10474 10475 10474 10474 10475 10476 10476 10477 10477 10478 10479 10479 10479 10480 10480 10481 10482 10483 10485 10487 10489 10490 10491 10491 10491 10492 10492 10491 10492 10492 10493 10495 10496 10497 10500 10502 10503 10504 10505 10505 10507 10509 10511
10441 10442 10447 10449 10449 10452 10453 10451 10447 10442 10446 10452 10452 10453 10455 10455 10454 10456 10458 10458 10462 10464 10461 10464 10466 10460 10458 10462 10461 10460 10460 10459 10457 10456 10458 10464 10463 10460 10462 10464 10463 10463 10465 10466 10466 10466 10467 10468 10468 10468 10469 10470 10470 10471 10472 10473 10473 10474 10474 10474 10475 10476 10478 10480 10481 10482 10482 10482 10483 10484 10483 10483 10485 10486 10488 10488 10489 10492 10493 10495 10497 10497 10497 10498 10500 10502
10432 10435 10438 10439 10440 10444 10445 10443 10438 10434 10438 10445 10445 10445 10446 10446 10447 10450 10451 10452 10455 10456 10456 10458 10456 10452 10451 10452 10451 10453 10455 10452 10449 10449 10450 10452 10454 10454 10455 10456 10455 10455 10457 10457 10458 10458 10459 10459 10460 10461 10462 10463 10463 10464 10465 10465 10466 10467 10467 10467 10468 10469 10470 10472 10473 10473 10474 10475 10476 10477 10477 10477 10478 10479 10481 10482 10482 10484 10486 10489 10491 10489 10487 10489 10491 10494
10424 10427 10429 10429 10431 10435 10435 10435 10432 10428 10430 10433 10435 10438 10440 10439 10440 10441 10443 10446 10444 10446 10453 10451 10444 10444 10445 10442 10441 10444 10446 10444 10443 10443 10443 10442 10444 10447 10448 10447 10446 10446 10448 10449 10451 10451 10451 10451 10453 10454 10454 10455 10456 10456 10457 10458 10458 10459 10460 10460 10461 10462 10463 10464 10465 10465 10466 10467 10468 10469 10470 10471 10472 10473 10474 10475 10476 10477 10479 10481 10482 10480 10480 10482 10485 10488
10416 10418 10420 10420 10422 10426 10427 10427 10425 10422 10422 10424 10427 10430 10431 10431 10431 10431 10434 10437 10435 10437 10446 10443 10435 10437 10439 10434 10432 10432 10434 10437 10438 10435 10435 10434 10434 10437 10440 10439 10439 10439 10440 10442 10443 10444 10444 10444 10445 10445 10446 10447 10448 10448 10449 10450 10450 10451 10452 10452 10453 10454 10455 10456 10457 10458 10458 10459 10460 10461 10462 10463 10465 10466 10467 10468 10469 10471 10472 10473 10474 10474 10474 10475 10478 10482
10409 10410 10411 10412 10415 10418 10418 10418 10417 10415 10415 10416 10418 10421 10422 10422 10423 10424 10426 10427 10426 10428 10435 10433 10428 10431 10430 10425 10424 10423 10423 10426 10427 10426 10427 10427 10426 10427 10429 10431 10431 10430 10432 10434 10436 10437 10438 10437 10437 10438 10437 10438 10439 10439 10441 10442 10442 10442 10443 10444 10445 10446 10448 10449 10449 10450 10451 10451 10452 10453 10454 10456 10457 10458 10460 10461 10462 10463 10464 10466 10467 10468 10469 10469 10471 10474
10402 10403 10404 10405 10408 10411 10410 10409 10409 10408 10407 10409 10412 10414 10414 10414 10415 10416 10417 10417 10416 10418 10422 10421 10421 10425 10422 10415 10414 10415 10414 10413 10415 10417 10417 10417 10417 10416 10417 10421 10422 10423 10425 10426 10426 10428 10430 10430 10431 10431 10430 10429 10429 10430 10432 10433 10434 10435 10435 10436 10438 10439 10440 10441 10441 10442 10443 10444 10445 10445 10446 10448 10449 10450 10451 10452 10453 10454 10456 10457 10459 10461 10462 10462 10463 10465
10393 10396 10397 10397 10400 10404 10402 10400 10401 10399 10399 10405 10408 10407 10406 10405 10406 10407 10407 10408 10408 10408 10409 10411 10415 10418 10413 10406 10405 10408 10407 10404 10404 10406 10406 10407 10408 10406 10407 10411 10413 10414 10416 10414 10414 10418 10423 10425 10425 10425 10422 10420 10420 10422 10423 10423 10425 10427 10427 10426 10429 10431 10431 10432 10433 10433 10435 10436 10437 10438 10439 10440 10441 10441 10442 10443 10444 10445 10446 10448 10449 10451 10454 10454 10454 10455
10385 10388 10389 10389 10393 10397 10394 10392 10392 10392 10396 10402 10401 10398 10397 10396 10397 10399 10400 10401 10400 10398 10399 10402 10406 10406 10402 10400 10400 10401 10399 10396 10397 10398 10396 10396 10397 10397 10397 10399 10401 10404 10404 10403 10404 10410 10416 10419 10421 10419 10413 10410 10413 10416 10415 10413 10414 10418 10419 10418 10419 10420 10420 10421 10423 10423 10425 10426 10427 10429 10430 10431 10432 10432 10433 10434 10434 10435 10436 10437 10438 10440 10443 10445 10446 10446
10378 10380 10382 10382 10386 10390 10387 10383 10384 10387 10394 10395 10389 10387 10389 10389 10390 10393 10394 10393 10391 10388 10390 10393 10395 10395 10394 10394 10392 10392 10393 10391 10391 10391 10387 10383 10385 10387 10387 10387 10390 10392 10393 10394 10396 10401 10407 10412 10415 10414 10406 10402 10405 10406 10405 10406 10407 10408 10408 10408 10409 10409 10410 10411 10412 10413 10414 10415 10416 10419 10420 10421 10422 10423 10423 10424 10424 10425 10425 10426 10427 10428 10430 10433 10435 10436
10370 10372 10374 10375 10379 10383 10380 10376 10377 10383 10386 10382 10377 10379 10383 10383 10385 10386 10385 10383 10381 10380 10381 10384 10386 10387 10387 10385 10382 10384 10387 10385 10383 10383 10378 10373 10375 10377 10376 10378 10382 10381 10381 10385 10388 10392 10399 10404 10405 10405 10401 10396 10396 10396 10396 10399 10401 10399 10397 10398 10399 10399 10399 10400 10401 10401 10403 10403 10404 10406 10408 10410 10411 10412 10413 10414 10415 10415 10415 10415 10416 10417 10418 10419 10421 10424
10362 10363 10366 10368 10370 10373 10371 10368 10371 10376 10376 10370 10368 10373 10377 10377 10376 10376 10375 10374 10372 10372 10373 10376 10378 10378 10377 10376 10375 10376 10378 10378 10377 10374 10368 10365 10367 10368 10369 10371 10373 10371 10370 10376 10379 10382 10388 10392 10393 10396 10395 10389 10386 10387 10388 10390 10391 10390 10388 10389 10390 10389 10389 10390 10390 10390 10391 10392 10392 10393 10395 10397 10399 10400 10401 10402 10404 10405 10405 10406 10407 10407 10407 10408 10409 10410
10354 10355 10357 10360 10361 10361 10360 10360 10363 10367 10366 10361 10360 10365 10369 10369 10366 10366 10367 10365 10362 10363 10367 10369 10370 10369 10367 10367 10367 10368 10370 10373 10369 10361 10356 10358 10361 10362 10363 10365 10365 10362 10360 10364 10369 10372 10377 10382 10384 10385 10385 10381 10377 10378 10379 10381 10382 10381 10379 10379 10380 10380 10379 10380 10379 10379 10380 10380 10380 10381 10383 10384 10385 10387 10388 10390 10391 10393 10394 10395 10397 10397 10397 10398 10398 10399
10347 10347 10347 10350 10352 10351 10350 10351 10352 10355 10355 10353 10352 10356 10359 10359 10358 10358 10358 10355 10351 10355 10360 10362 10361 10359 10357 10357 10359 10361 10362 10363 10359 10351 10350 10352 10353 10356 10359 10357 10354 10352 10350 10353 10358 10362 10367 10371 10372 10373 10374 10371 10367 10366 10369 10371 10371 10371 10370 10369 10369 10369 10369 10369 10369 10369 10369 10369 10370 10371 10371 10372 10373 10374 10375 10377 10378 10379 10381 10383 10384 10385 10387 10388 10388 10388
10338 10338 10338 10340 10343 10342 10340 10340 10342 10342 10342 10342 10345 10348 10349 10349 10349 10349 10348 10345 10343 10347 10352 10352 10349 10349 10349 10348 10350 10352 10351 10350 10349 10347 10345 10344 10344 10350 10353 10348 10343 10342 10343 10344 10346 10350 10354 10358 10362 10363 10361 10358 10354 10355 10358 10360 10360 10360 10361 10360 10360 10359 10358 10358 10358 10358 10358 10358 10359 10360 10360 10361 10362 10363 10364 10364 10365 10366 10367 10369 10370 10372 10374 10375 10376 10376
10330 10330 10330 10329 10330 10330 10329 10330 10332 10330 10328 10332 10337 10339 10339 10339 10337 10336 10336 10336 10336 10339 10342 10342 10340 10339 10339 10338 10339 10341 10339 10337 10339 10341 10338 10335 10335 10340 10343 10339 10335 10333 10334 10334 10334 10336 10341 10346 10349 10349 10346 10343 10343 10344 10346 10347 10348 10349 10350 10350 10350 10349 10347 10347 10347 10346 10346 10347 10348 10348 10349 10350 10351 10352 10352 10353 10353 10353 10354 10355 10357 10359 10361 10362 10363 10363
10324 10323 10319 10316 10317 10319 10318 10319 10321 10319 10317 10322 10327 10328 10329 10329 10325 10323 10325 10326 10328 10329 10331 10333 10332 10330 10328 10327 10327 10328 10327 10327 10329 10331 10329 10324 10324 10328 10330 10330 10328 10325 10323 10321 10322 10324 10328 10332 10334 10334 10332 10331 10331 10332 10333 10335 10336 10337 10338 10338 10338 10337 10337 10337 10336 10336 10335 10335 10336 10336 10337 10338 10339 10340 10341 10341 10341 10341 10342 10343 10345 10347 10348 10349 10350 10349
10314 10313 10309 10306 10305 10307 10307 10308 10310 10309 10306 10310 10315 10317 10318 10318 10316 10314 10315 10315 10315 10315 10316 10320 10322 10320 10319 10318 10317 10317 10318 10317 10318 10319 10317 10314 10314 10315 10316 10317 10317 10316 10313 10311 10311 10311 10313 10316 10320 10321 10319 10319 10319 10320 10321 10323 10324 10325 10326 10325 10325 10325 10325 10326 10326 10325 10325 10324 10325 10326 10326 10327 10328 10328 10328 10328 10328 10329 10331 10332 10334 10336 10337 10337 10337 10336
10300 10300 10300 10298 10296 10298 10300 10298 10296 10294 10294 10298 10303 10303 10305 10308 10308 10306 10304 10302 10301 10301 10302 10305 10307 10309 10311 10311 10309 10308 10308 10306 10305 10305 10305 10303 10302 10301 10302 10304 10305 10304 10303 10303 10301 10298 10298 10301 10305 10307 10308 10307 10307 10308 10309 10311 10312 10313 10313 10312 10312 10313 10313 10314 10315 10315 10314 10314 10314 10315 10315 10316 10316 10315 10314 10314 10316 10319 10320 10321 10323 10325 10326 10325 10325 10325
10286 10288 10291 10289 10287 10290 10292 10287 10282 10283 10283 10284 10288 10291 10294 10297 10297 10294 10292 10290 10289 10289 10288 10290 10294 10296 10299 10301 10300 10298 10295 10292 10291 10291 10291 10291 10290 10290 10291 10291 10291 10291 10292 10291 10290 10288 10288 10289 10291 10293 10295 10295 10294 10295 10297 10298 10299 10300 10301 10301 10301 10301 10302 10303 10304 10305 10304 10304 10303 10304 10304 10304 10302 10301 10301 10303 10306 10309 10311 10311 10313 10314 10314 10315 10315 10315
10274 10278 10282 10280 10277 10279 10281 10276 10273 10274 10273 10272 10278 10282 10282 10282 10282 10280 10279 10278 10277 10277 10278 10280 10281 10282 10283 10285 10286 10285 10282 10279 10278 10278 10278 10278 10278 10277 10277 10277 10277 10278 10279 10278 10278 10279 10278 10278 10279 10281 10283 10283 10283 10282 10283 10285 10287 10289 10290 10289 10289 10290 10292 10293 10294 10294 10294 10293 10293 10293 10291 10290 10290 10290 10292 10295 10297 10299 10300 10301 10303 10303 10303 10304 10304 10304
10264 10267 10269 10268 10266 10266 10268 10267 10263 10263 10263 10264 10268 10270 10268 10267 10267 10266 10265 10266 10267 10268 10268 10267 10267 10266 10267 10269 10271 10271 10270 10268 10267 10266 10265 10265 10265 10264 10263 10263 10263 10264 10265 10266 10266 10266 10267 10268 10270 10270 10271 10272 10271 10271 10271 10273 10276 10277 10277 10278 10278 10280 10281 10282 10283 10284 10284 10284 10283 10280 10279 10280 10281 10282 10283 10285 10287 10288 10290 10292 10294 10294 10293 10292 10292 10294
10256 10257 10255 10256 10257 10256 10257 10256 10253 10253 10255 10255 10255 10254 10254 10254 10254 10252 10253 10255 10255 10256 10255 10254 10254 10253 10253 10255 10256 10257 10256 10254 10254 10254 10252 10252 10253 10252 10250 10250 10250 10250 10251 10253 10253 10253 10255 10257 10258 10259 10260 10260 10260 10260 10262 10264 10265 10265 10266 10267 10267 10268 10269 10270 10272 10274 10274 10273 10271 10270 10270 10272 10273 10273 10274 10275 10277 10278 10280 10282 10283 10283 10282 10283 10284 10287
10248 10250 10246 10246 10249 10248 10246 10243 10242 10244 10245 10243 10240 10239 10240 10242 10242 10242 10242 10242 10242 10243 10243 10242 10242 10241 10241 10241 10242 10243 10242 10240 10239 10240 10240 10240 10241 10241 10239 10239 10239 10238 10238 10238 10239 10241 10243 10246 10247 10248 10249 10249 10248 10250 10253 10254 10254 10254 10255 10255 10256 10258 10259 10260 10262 10263 10262 10261 10261 10262 10263 10263 10263 10263 10265 10267 10268 10269 10270 10271 10271 10273 10274 10275 10277 10278
10239 10241 10239 10239 10239 10237 10234 10232 10232 10233 10232 10230 10229 10230 10230 10231 10231 10230 10230 10230 10231 10232 10232 10231 10230 10230 10229 10229 10228 10228 10228 10228 10227 10227 10228 10229 10229 10229 10228 10228 10228 10227 10226 10226 10227 10229 10231 10234 10236 10237 10239 10240 10239 10240 10243 10243 10243 10244 10245 10246 10247 10248 10249 10250 10251 10252 10252 10252 10253 10254 10253 10253 10253 10256 10258 10260 10260 10260 10259 10261 10263 10265 10266 10266 10267 10269
10229 10229 10229 10230 10230 10227 10224 10223 10223 10223 10222 10219 10219 10219 10220 10220 10221 10220 10219 10218 10218 10219 10220 10220 10220 10218 10218 10217 10216 10216 10216 10217 10216 10216 10216 10217 10217 10217 10217 10216 10217 10217 10217 10217 10218 10219 10220 10222 10223 10225 10228 10230 10230 10230 10232 10232 10232 10233 10235 10237 10238 10239 10240 10240 10242 10243 10244 10245 10245 10244 10244 10244 10246 10249 10250 10250 10251 10251 10251 10253 10255 10256 10257 10258 10259 10261
10220 10218 10219 10221 10220 10218 10215 10214 10214 10215 10214 10211 10209 10209 10209 10209 10209 10209 10208 10208 10207 10207 10208 10209 10208 10208 10207 10207 10206 10205 10206 10206 10206 10205 10205 10205 10205 10205 10205 10205 10205 10207 10208 10208 10209 10209 10210 10211 10212 10214 10216 10218 10219 10220 10221 10222 10223 10225 10226 10228 10230 10230 10230 10231 10233 10235 10236 10236 10235 10235 10236 10237 10239 10241 10241 10241 10242 10243 10244 10245 10247 10249 10249 10251 10252 10253